Regional Weather Roundup
Issued by NWS Upton, NY

Current Version | Previous Version | Text Only | Print | Product List | Glossary On
Versions: 1 2 3 4 5 6 7 8 9 10 11 12 13 14 15 16 17 18 19 20 21 22 23 24 25 26 27 28 29 30 31 32 33 34 35 36 37 38 39 40 41 42 43 44 45 46 47 48 49 50
000
ASUS41 KOKX 212305
RWROKX

REGIONAL WEATHER ROUNDUP
NATIONAL WEATHER SERVICE NEW YORK NY
600 PM EST SUN DEC 21 2014

NOTE: "FAIR" INDICATES FEW OR NO CLOUDS BELOW 12,000 FEET WITH NO
SIGNIFICANT WEATHER AND/OR OBSTRUCTIONS TO VISIBILITY.

NYZ071-072-176-178-NJZ106-104-220000-
NEW YORK CITY METRO AREA


CITY           SKY/WX    TMP DP  RH WIND       PRES   REMARKS
CENTRAL PARK   CLOUDY    35  26  69 N7        30.33R WCI  29
LAGUARDIA APRT CLOUDY    35  29  78 N9        30.31R WCI  28
KENNEDY INTL   FLURRIES  36  28  73 N9        30.32R WCI  29
NEWARK/LIBERTY CLOUDY    36  27  69 N8        30.31R WCI  30
BRNX BOT. GARD   N/A    N/A N/A N/A NW3       30.31F
TETERBORO      FLURRIES  36  27  69 NE5       30.31R WCI  32
$$

NYZ177-179-078>081-220000-
LONG ISLAND NEW YORK

CITY           SKY/WX    TMP DP  RH WIND       PRES   REMARKS
FARMINGDALE    CLOUDY    36  31  82 N8        30.30R WCI  30
ISLIP          DRIZZLE   36  32  85 N9        30.28S WCI  29
SHIRLEY        CLOUDY    36  33  89 N8        30.30R WCI  30
WESTHAMPTON    CLOUDY    37  35  92 N8        30.30R WCI  31
MONTAUK POINT    N/A     39  36  89 NE8       30.30R WCI  33
$$

NYZ052-065-067-220000-
HUDSON VALLEY

CITY           SKY/WX    TMP DP  RH WIND       PRES   REMARKS
WHITE PLAINS   MOCLDY    31  28  89 N9        30.28R WCI  23
NEWBURGH       CLOUDY    32  28  86 VRB5      30.32R WCI  27
MONTGOMERY     CLOUDY    32  27  81 N3        30.30R
POUGHKEEPSIE   CLOUDY    33  26  75 N5        30.33R WCI  29
ALBANY         CLOUDY    31  23  72 N3        30.35R
$$

NJZ001-105-106-008-010-013-015-019>022-104-220000-
NEW JERSEY

CITY           SKY/WX    TMP DP  RH WIND       PRES   REMARKS
NEWARK/LIBERTY CLOUDY    36  27  69 N8        30.31R WCI  30
TETERBORO      FLURRIES  36  27  69 NE5       30.31R WCI  32
CALDWELL       CLOUDY    34  26  72 N7        30.31S WCI  28
MORRISTOWN     CLOUDY    36  28  75 N6        30.31R WCI  31
SOMERVILLE     CLOUDY    35  25  66 CALM      30.30R
SUSSEX         CLOUDY    33  27  78 N5        30.30R WCI  29
ANDOVER          N/A     33  25  72 CALM      30.29R
TRENTON        CLOUDY    34  23  64 CALM      30.32R
MILLVILLE      CLEAR     30  22  72 NW5       30.33R WCI  25
ATLANTIC CITY  CLEAR     31  21  66 NW3       30.33R
WRIGHTSTOWN    CLOUDY    31  24  74 NW5       30.30R WCI  26
TOMS RIVER     CLOUDY    30  23  74 CALM      30.32R
BELMAR         CLOUDY    36  23  60 NW5       30.30R WCI  32
$$

PAZ047>061-062-071-220000-
EASTERN PENNSYLVANIA

CITY           SKY/WX    TMP DP  RH WIND       PRES   REMARKS
PHILADELPHIA   PTCLDY    37  21  52 NW8       30.34R WCI  31
ALLENTOWN      CLEAR     30  20  66 NW5       30.32R WCI  25
SCRANTON       CLOUDY    30  20  66 N7        30.29R WCI  23
$$

CTZ002-004>006-009-010-012-RIZ004-006-007-MAZ004-011-015-220000-
SOUTHERN NEW ENGLAND
 IN CT

CITY           SKY/WX    TMP DP  RH WIND       PRES   REMARKS
BRADLEY INTL   CLOUDY    33  29  85 N6        30.31R WCI  28
HARTFORD       CLOUDY    33  30  88 VRB6      30.32S WCI  28
DANBURY        CLOUDY    33  27  78 N3        30.31R
WTRBRY/OXFORD  LGT SNOW  32  27  80 NE5       30.29R WCI  27
BRIDGEPORT     LGT RAIN  35  33  92 N6        30.31R WCI  30
MERIDEN        CLOUDY    33  30  88 N5        30.32R WCI  29
NEW HAVEN      CLOUDY    36  31  82 N9        30.30S HAZE    WCI  29
CHESTER        CLOUDY    34  32  93 N6        30.30R FOG     WCI  29
GROTON         CLOUDY    34  33  96 N10       30.30R WCI  26
WILLIMANTIC    CLOUDY    34  29  82 NE6       30.31R WCI  29

 IN RI

CITY           SKY/WX    TMP DP  RH WIND       PRES   REMARKS
PROVIDENCE     CLOUDY    34  30  85 N7        30.32R WCI  28
BLOCK ISLAND   CLOUDY    37  34  87 NE10      30.28R WCI  30
WESTERLY       CLOUDY    35  31  85 N7        30.30R WCI  29

 IN MA

CITY           SKY/WX    TMP DP  RH WIND       PRES   REMARKS
BOSTON         CLOUDY    34  28  79 N7        30.33S WCI  28
WORCESTER      CLOUDY    30  27  88 NE7       30.29R WCI  23
WESTFIELD      CLOUDY    33  30  88 N5        30.32R WCI  29
PROVINCETOWN   CLOUDY    43  34  70 NE6       30.30S
NANTUCKET      CLOUDY    41  33  73 NE5       30.28R
$$

ANZ330-335-338-340-345-350-353-355-220000-
COASTAL MARINE OBSERVATIONS


STATION/POSITION TIME  SKY/WX   TEMP    WIND        PRES    VSBY  WAVE
                                AIR SEA DIR/SP/G                  HT/PER
                 (UTC)          (F)     (DEG/KT/KT) (MB)    (MI)  (FT/S)
NY HARB ENTRANCE 2300            37 47  350/ 10/ 12 1026.3          1/10
4S FIRE IS       2300               45                N/A           2/ 5
20S FIRE ISLAND  2200            39 49              1025.9          2/ 5
23SW MTP         2300                                 N/A           3/ 5
HUDSON CANYON    2300            40 55  330/  8/ 14 1025.2          2/10
EXECUTION ROCKS  2300            36 41  350/  8/ 12   N/A
WESTERN LI SOUND 2300            35     350/  8/ 12   N/A           0
CENTRAL LI SOUND 2200            35 44   10/ 10/ 14   N/A           1/ 2
EASTERN LI SOUND NOT AVBL
ROBBINS REEF     2300            36     180/  6/  9 1025.0
$$


>>>>>>>>>>>>>>>>>>>>>>>>>>>> KEY <<<<<<<<<<<<<<<<<<<<<<<<<<<
>                                                          <
>     SKY/WX - SKY CONDITION/PRESENT WEATHER               <
>     TMP    - TEMPERATURE IN FAHRENHEIT                   <
>     DP     - DEWPOINT IN FAHRENHEIT                      <
>     RH     - RELATIVE HUMIDITY IN PERCENT                <
>     WIND   - DIRECTION AND SPEED IN MPH                  <
>     PRES   - MEAN SEA LEVEL PRESSURE IN INCHES OF HG     <
>     WCI    - WIND CHILL INDEX                            <
>     VSB    - VISIBILITY IN MILES                         <
>     HX     - HEAT INDEX                                  <
>     TC     - TEMPERATURE IN CELSIUS                      <
>     VRB    - VARIABLE WIND DIRECTION                     <
>                                                          <
>>>>>>>>>>>>>>>>>>>>>>>>>>>> KEY <<<<<<<<<<<<<<<<<<<<<<<<<<<




USA.gov is the U.S. government's official web portal to all federal, state and local government web resources and services.